Location: Bieujac
(44.5398°N, 0.1549°W)
Time: 15:31:56
(UTC+00:00)

NOSS 3-3 (A) - Pass Details

Date: 26 February 2020
Orbit: 833 x 1379 km, 63.4° (Epoch: 29 March)

Event Time Altitude Azimuth Distance (km) Brightness Sun altitude
Exits shadow 02:41:27 10° 108° (ESE) 2,576 6.5 -42.2°
Reaches altitude 10° 02:41:36 10° 106° (ESE) 2,574 6.5 -42.2°
Maximum altitude 02:42:03 10° 102° (ESE) 2,579 6.6 -42.1°
Drops below altitude 10° 02:42:29 10° 98° (E) 2,595 6.6 -42.1°
Sets 02:48:21 0° 56° (NE) 3,702 7.9 -41.2°
